SCP
0 0 3 3 6 5 5 5 5 4 4 3 3 4 2 4 3 2 3 2 2 0
0 0 0 2 1 3 4 4 5 5 5 5 4 5 6 4 3 2 2 3 2 2
0 0 0 3 2 1 2 3 4 5 5 5 4 5 5 4 3 3 3 3 2 2
0 0 0 0 5 1 1 1 3 6 5 4 5 4 4 3 3 1 3 2 3 2
0 0 0 0 0 1 1 0 1 0 3 4 3 4 3 3 1 1 1 3 2 3
0 0 0 0 0 1 0 1 0 0 1 1 1 2 4 3 1 1 1 2 2 3
0 0 0 0 0 0 0 0 0 0 0 0 2 4 3 2 2 1 1 1 1 1
0 0 0 0 0 0 0 0 0 0 0 0 -0 2 1 1 1 1 1 1 1 1
0 0 0 0 0 0 0 0 0 0 0 0 -0 1 1 2 2 2 2 2 2 2
0 0 0 0 0 0 1 0 0 0 0 0 1 1 1 2 4 3 3 2 3 2
0 0 0 0 0 0 1 1 1 -0 0 1 1 0 0 1 4 4 3 2 2 2
0 0 0 0 0 0 0 2 2 1 1 0 0 0 0 2 4 3 2 1 2 1
0 0 0 0 0 1 1 2 2 2 1 2 3 0 0 2 2 3 2 2 0 0
0 0 0 0 0 1 1 3 3 4 4 2 4 0 0 1 2 2 1 0 0 0
Wind_Speed_500mb
47 72 93 96 68 72 82 84 83 92 93 89 90 90 86 69 68 62 71 71 54 48
52 43 69 94 88 64 79 89 97 96 108 97 95 91 84 77 66 63 70 65 77 55
48 39 60 53 65 97 76 78 88 93 101 98 90 84 82 79 65 71 60 66 64 70
47 41 43 61 64 82 79 71 103 86 90 99 99 92 90 85 79 73 73 64 65 66
47 40 43 56 53 63 65 75 43 66 81 94 99 95 91 85 74 80 79 78 71 66
43 42 38 47 52 50 60 71 78 69 69 78 87 98 87 79 84 75 74 77 73 63
44 42 38 42 52 37 64 77 94 89 76 56 59 65 70 77 83 74 76 67 70 70
43 40 41 45 47 52 47 58 94 132 121 97 156 89 89 78 75 77 70 61 63 68
41 39 34 45 44 36 34 68 66 84 98 106 94 80 76 71 70 70 69 61 58 53
43 37 33 32 44 25 56 57 57 69 94 93 90 80 73 73 67 68 64 57 53 53
40 38 32 29 33 28 27 37 67 70 80 43 63 70 72 72 63 54 49 47 47 52
37 38 31 25 22 29 19 55 41 77 81 61 57 62 66 68 58 45 40 41 50 62
37 36 35 23 18 24 20 24 47 45 58 59 58 42 51 53 49 47 41 57 55 52
37 35 33 27 14 15 19 4 33 34 35 32 42 40 42 48 46 45 63 65 57 46
Wind_Direction_500mb
282 240 245 242 223 200 203 209 214 212 213 215 216 208 212 207 206 210 199 201 196 210
309 257 235 244 240 221 218 220 219 216 209 210 211 203 204 198 206 205 205 203 203 201
317 284 236 232 246 236 220 215 209 215 211 206 202 201 201 201 206 200 210 201 211 211
321 302 251 230 227 240 237 224 211 211 207 204 202 203 204 207 198 210 203 206 206 216
312 312 271 243 234 234 232 239 244 218 208 201 204 202 202 204 202 205 210 207 201 210
309 308 291 263 245 242 240 239 213 222 205 205 208 199 199 200 206 206 211 207 204 204
299 302 304 282 253 252 249 247 226 221 233 203 204 200 200 198 194 196 205 203 204 206
293 299 306 297 273 236 247 243 223 223 228 234 252 202 198 196 196 198 205 208 208 212
287 289 293 299 288 252 244 216 225 219 224 228 199 192 189 188 190 195 201 201 203 206
287 281 283 289 295 278 229 220 218 233 212 186 185 189 190 189 193 197 199 199 205 206
279 273 277 283 295 293 263 220 195 202 240 214 189 193 193 193 189 191 197 203 211 212
273 267 270 267 283 284 281 217 206 207 208 200 216 201 198 197 188 185 201 202 204 214
264 257 254 258 268 299 328 222 217 207 212 199 200 202 206 199 191 196 200 208 216 219
245 250 248 238 225 281 293 34 216 200 204 209 193 209 208 204 195 201 221 228 220 227
Wind_Speed_850mb
47 72 93 96 68 72 82 84 83 92 93 89 90 90 86 69 68 62 71 71 54 48
52 43 69 94 88 64 79 89 97 96 108 97 95 91 84 77 66 63 70 65 77 55
48 39 60 53 65 97 76 78 88 93 101 98 90 84 82 79 65 71 60 66 64 70
47 41 43 61 64 82 79 71 103 86 90 99 99 92 90 85 79 73 73 64 65 66
47 40 43 56 53 63 65 75 43 66 81 94 99 95 91 85 74 80 79 78 71 66
43 42 38 47 52 50 60 71 78 69 69 78 87 98 87 79 84 75 74 77 73 63
44 42 38 42 52 37 64 77 94 89 76 56 59 65 70 77 83 74 76 67 70 70
43 40 41 45 47 52 47 58 94 132 121 97 156 89 89 78 75 77 70 61 63 68
41 39 34 45 44 36 34 68 66 84 98 106 94 80 76 71 70 70 69 61 58 53
43 37 33 32 44 25 56 57 57 69 94 93 90 80 73 73 67 68 64 57 53 53
40 38 32 29 33 28 27 37 67 70 80 43 63 70 72 72 63 54 49 47 47 52
37 38 31 25 22 29 19 55 41 77 81 61 57 62 66 68 58 45 40 41 50 62
37 36 35 23 18 24 20 24 47 45 58 59 58 42 51 53 49 47 41 57 55 52
37 35 33 27 14 15 19 4 33 34 35 32 42 40 42 48 46 45 63 65 57 46
Wind_Direction_850mb
282 240 245 242 223 200 203 209 214 212 213 215 216 208 212 207 206 210 199 201 196 210
309 257 235 244 240 221 218 220 219 216 209 210 211 203 204 198 206 205 205 203 203 201
317 284 236 232 246 236 220 215 209 215 211 206 202 201 201 201 206 200 210 201 211 211
321 302 251 230 227 240 237 224 211 211 207 204 202 203 204 207 198 210 203 206 206 216
312 312 271 243 234 234 232 239 244 218 208 201 204 202 202 204 202 205 210 207 201 210
309 308 291 263 245 242 240 239 213 222 205 205 208 199 199 200 206 206 211 207 204 204
299 302 304 282 253 252 249 247 226 221 233 203 204 200 200 198 194 196 205 203 204 206
293 299 306 297 273 236 247 243 223 223 228 234 252 202 198 196 196 198 205 208 208 212
287 289 293 299 288 252 244 216 225 219 224 228 199 192 189 188 190 195 201 201 203 206
287 281 283 289 295 278 229 220 218 233 212 186 185 189 190 189 193 197 199 199 205 206
279 273 277 283 295 293 263 220 195 202 240 214 189 193 193 193 189 191 197 203 211 212
273 267 270 267 283 284 281 217 206 207 208 200 216 201 198 197 188 185 201 202 204 214
264 257 254 258 268 299 328 222 217 207 212 199 200 202 206 199 191 196 200 208 216 219
245 250 248 238 225 281 293 34 216 200 204 209 193 209 208 204 195 201 221 228 220 227